Frankfort, MI

4:15 AM EDT on April 20, 2018 (GMT -0400)
Frankfort

Weather History for KFKS - March, 2013

Change the Weather History Date:

Sunday, March 10, 2013

  Actual Average (KMBL) Record (KMBL)
Temperature  
Mean Temperature 38 °F -  
Max Temperature 42 °F 37 °F 60 °F (1955)
Min Temperature 36 °F 22 °F 0 °F (2008)
Degree Days  
Heating Degree Days 26    
Moisture  
Dew Point 36 °F    
Average Humidity 91    
Maximum Humidity 95    
Minimum Humidity 79    
Precipitation  
Precipitation 0.00 in - - ()
Sea Level Pressure  
Sea Level Pressure 29.82 in    
Wind  
Wind Speed 8 mph (East)    
Max Wind Speed 16 mph    
Max Gust Speed 23 mph    
Visibility 6 miles    
Events Rain    
Averages and records for this station are not official NWS values.
T = Trace of Precipitation, MM = Missing Value Source: NWS Daily Summary

Daily Weather History Graph

Daily Weather History Graph

Search for Another Location

Airport or City:

Astronomy

Mar. 10, 2013 Rise Set
Actual Time 8:05 AM EDT 7:44 PM EDT
Civil Twilight 7:36 AM EDT 8:13 PM EDT
Nautical Twilight 7:03 AM EDT 8:47 PM EDT
Astronomical Twilight 6:28 AM EDT 9:22 PM EDT
Moon 7:07 AM EDT (3/10) 6:51 PM EDT (3/10)
Length of Visible Light 12h 37m
Length of Day
11h 38m
Waning Crescent, 2% of the Moon is Illuminated
Mar 10
Waning Crescent
Mar 11
New
Mar 19
First Quarter
Mar 27
Full
Apr 3
Last Quarter

Hourly Weather History & Observations

Time (EDT) Temp. Windchill Dew Point Humidity Pressure Visibility Wind Dir Wind Speed Gust Speed Precip Events Conditions
12:11 AM 37.8 °F 30.7 °F 32.4 °F 81% 29.89 in 10.0 mi SSE 10.4 mph - N/A Rain Light Rain
12:31 AM 38.3 °F 29.7 °F 32.5 °F 80% 29.88 in 10.0 mi SSE 15.0 mph 19.6 mph N/A   Overcast
12:51 AM 38.7 °F 30.5 °F 32.7 °F 79% 29.89 in 10.0 mi SSE 13.8 mph 19.6 mph N/A Rain Light Rain
1:11 AM 37.9 °F 30.0 °F 32.9 °F 82% 29.88 in 10.0 mi SSE 12.7 mph 18.4 mph N/A Rain Light Rain
1:32 AM 37.9 °F 30.5 °F 33.4 °F 84% 29.87 in 7.0 mi SSE 11.5 mph 19.6 mph N/A Rain Light Rain
1:52 AM 38.1 °F 31.2 °F 33.8 °F 84% 29.86 in 10.0 mi SSE 10.4 mph - N/A Rain Light Rain
3:12 AM 38.3 °F 31.4 °F 34.0 °F 84% 29.85 in 7.0 mi SSE 10.4 mph 16.1 mph N/A   Drizzle
3:32 AM 38.3 °F 31.4 °F 34.5 °F 86% 29.84 in 7.0 mi SE 10.4 mph - N/A Rain Light Rain
3:52 AM 37.9 °F 32.7 °F 34.3 °F 87% 29.82 in 10.0 mi SSE 6.9 mph - N/A Rain Light Rain
4:12 AM 38.5 °F 33.4 °F 34.3 °F 85% 29.82 in 7.0 mi SSE 6.9 mph - N/A Rain Light Rain
4:52 AM 38.7 °F 32.9 °F 34.2 °F 84% 29.82 in 10.0 mi SSE 8.1 mph - N/A Rain Rain
5:12 AM 39.2 °F 32.5 °F 34.3 °F 83% 29.81 in 10.0 mi SSE 10.4 mph - N/A Rain Light Rain
5:33 AM 39.2 °F 35.0 °F 34.5 °F 83% 29.81 in 10.0 mi SSE 5.8 mph - N/A Rain Light Rain
5:53 AM 39.0 °F 34.0 °F 34.9 °F 85% 29.82 in 7.0 mi SSE 6.9 mph - N/A Rain Rain
6:13 AM 39.0 °F 35.7 °F 35.4 °F 87% 29.82 in 7.0 mi SSE 4.6 mph - N/A Rain Rain
6:33 AM 39.2 °F 35.9 °F 35.6 °F 87% 29.81 in 5.0 mi SSE 4.6 mph - N/A Rain Rain
7:13 AM 39.9 °F 35.1 °F 36.5 °F 88% 29.82 in 7.0 mi South 6.9 mph - N/A Rain Rain
7:33 AM 39.6 °F 36.3 °F 36.1 °F 88% 29.80 in 7.0 mi SSE 4.6 mph - N/A Rain Light Rain
8:34 AM 38.5 °F - 36.1 °F 91% 29.81 in 5.0 mi Calm Calm - N/A Rain Rain
8:54 AM 39.2 °F - 36.9 °F 91% 29.83 in 2.5 mi Calm Calm - N/A Rain Light Rain
9:14 AM 39.2 °F 35.9 °F 37.0 °F 92% 29.82 in 3.0 mi ESE 4.6 mph - N/A Rain Light Rain
9:34 AM 39.2 °F 35.9 °F 36.9 °F 91% 29.82 in 4.0 mi ESE 4.6 mph - N/A Rain Light Rain
9:54 AM 39.2 °F 35.0 °F 37.0 °F 92% 29.82 in 4.0 mi SE 5.8 mph - N/A Rain Light Rain
10:14 AM 39.2 °F 35.9 °F 37.2 °F 93% 29.81 in 4.0 mi SE 4.6 mph - N/A Rain Light Rain
10:34 AM 39.7 °F 34.9 °F 37.8 °F 93% 29.79 in 4.0 mi ESE 6.9 mph - N/A Rain Light Rain
10:54 AM 40.1 °F 34.7 °F 38.3 °F 93% 29.77 in 5.0 mi SSE 8.1 mph - N/A   Overcast
11:14 AM 40.5 °F 36.5 °F 38.5 °F 93% 29.77 in 5.0 mi SE 5.8 mph - N/A Rain Light Rain
11:35 AM 41.0 °F - 39.2 °F 93% 29.78 in 5.0 mi Calm Calm - N/A Rain Light Rain
11:55 AM 41.9 °F - 39.7 °F 92% 29.81 in 7.0 mi Calm Calm - N/A Rain Light Rain
12:15 PM 41.7 °F 33.7 °F 39.4 °F 91% 29.86 in 4.0 mi WNW 16.1 mph 23.0 mph N/A Rain Rain
12:35 PM 38.8 °F 34.6 °F 36.9 °F 93% 29.85 in 7.0 mi West 5.8 mph - N/A Rain Rain
12:55 PM 38.5 °F 35.0 °F 36.7 °F 93% 29.85 in 2.5 mi NW 4.6 mph - N/A   Drizzle
1:15 PM 39.0 °F 36.8 °F 37.4 °F 94% 29.82 in 3.0 mi ESE 3.5 mph - N/A   Overcast
1:35 PM 39.2 °F - 37.4 °F 93% 29.85 in 7.0 mi Calm Calm - N/A   Overcast
1:55 PM 40.3 °F - 38.5 °F 93% 29.85 in 10.0 mi Calm Calm - N/A   Overcast
2:15 PM 39.6 °F - 37.8 °F 93% 29.84 in 7.0 mi Calm Calm - N/A   Overcast
2:36 PM 39.0 °F - 37.2 °F 93% 29.83 in 5.0 mi Calm Calm - N/A   Overcast
2:56 PM 39.4 °F 36.1 °F 37.6 °F 93% 29.83 in 10.0 mi North 4.6 mph - N/A   Overcast
3:16 PM 39.2 °F 34.2 °F 37.4 °F 93% 29.83 in 7.0 mi North 6.9 mph - N/A   Overcast
3:31 PM 38.3 °F 33.9 °F 36.5 °F 93% 29.85 in 1.8 mi NNE 5.8 mph - N/A   Overcast
3:51 PM 37.8 °F 34.2 °F 36.5 °F 95% 29.84 in 1.0 mi NE 4.6 mph - N/A Rain Rain
4:11 PM 37.9 °F 32.7 °F 36.5 °F 95% 29.84 in 1.5 mi NNE 6.9 mph - N/A Rain Light Rain
4:31 PM 37.8 °F 32.5 °F 36.5 °F 95% 29.82 in 1.8 mi NE 6.9 mph - N/A Rain Light Rain
4:51 PM 37.9 °F 33.5 °F 36.5 °F 95% 29.83 in 2.5 mi NE 5.8 mph - N/A Rain Light Rain
5:11 PM 37.4 °F 31.4 °F 36.0 °F 95% 29.83 in 3.0 mi NNE 8.1 mph - N/A   Light Drizzle
5:32 PM 36.9 °F 30.7 °F 35.6 °F 95% 29.83 in 3.0 mi NE 8.1 mph - N/A   Light Drizzle
5:52 PM 36.7 °F 31.2 °F 35.4 °F 95% 29.83 in 3.0 mi NE 6.9 mph - N/A   Light Drizzle
6:12 PM 36.5 °F 28.2 °F 35.1 °F 95% 29.81 in 5.0 mi NE 12.7 mph 17.3 mph N/A Rain Light Rain
6:32 PM 36.1 °F 31.4 °F 34.7 °F 94% 29.81 in 7.0 mi NE 5.8 mph - N/A   Light Drizzle
6:52 PM 36.1 °F 31.4 °F 34.3 °F 93% 29.83 in 3.0 mi ENE 5.8 mph - N/A Rain Rain
7:12 PM 36.1 °F 29.9 °F 34.5 °F 94% 29.87 in 2.5 mi SSE 8.1 mph - N/A Rain Rain
7:32 PM 36.1 °F 32.3 °F 34.3 °F 93% 29.84 in 2.5 mi NNE 4.6 mph - N/A Rain Rain
7:52 PM 36.1 °F 28.7 °F 34.2 °F 93% 29.82 in 5.0 mi NE 10.4 mph - N/A Rain Rain
8:12 PM 36.1 °F 29.3 °F 34.2 °F 93% 29.83 in 7.0 mi NE 9.2 mph - N/A Rain Light Rain
8:33 PM 36.1 °F 28.2 °F 33.8 °F 91% 29.82 in 7.0 mi NE 11.5 mph 16.1 mph N/A Rain Rain
8:53 PM 36.3 °F 28.4 °F 34.0 °F 91% 29.81 in 7.0 mi NE 11.5 mph 17.3 mph N/A Rain Rain
9:13 PM 36.5 °F 28.2 °F 34.2 °F 91% 29.80 in 7.0 mi NE 12.7 mph 17.3 mph N/A Rain Light Rain
9:33 PM 36.3 °F 28.9 °F 34.0 °F 91% 29.81 in 10.0 mi NE 10.4 mph 17.3 mph N/A Rain Light Rain
10:13 PM 36.0 °F 27.5 °F 33.8 °F 92% 29.78 in 10.0 mi NE 12.7 mph 16.1 mph N/A Rain Light Rain
10:33 PM 36.0 °F 27.1 °F 33.8 °F 92% 29.77 in 10.0 mi ENE 13.8 mph - N/A   Light Drizzle
10:53 PM 36.1 °F 29.9 °F 34.2 °F 93% 29.76 in 5.0 mi East 8.1 mph 19.6 mph N/A Rain Light Rain
11:14 PM 36.1 °F 28.7 °F 34.3 °F 93% 29.75 in 4.0 mi ENE 10.4 mph - N/A Rain Rain
11:34 PM 36.5 °F 28.2 °F 34.7 °F 93% 29.73 in 5.0 mi ENE 12.7 mph 17.3 mph N/A Rain Light Rain
11:54 PM 36.5 °F 28.2 °F 34.7 °F 93% 29.71 in 4.0 mi ENE 12.7 mph - N/A Rain Rain
12:14 AM 36.5 °F 33.9 °F 34.7 °F 93% 29.69 in 5.0 mi East 3.5 mph - N/A Rain Light Rain
12:34 AM 36.9 °F 33.1 °F 35.1 °F 93% 29.67 in 10.0 mi SSE 4.6 mph - N/A   Overcast